Temperature
21 20 20 20 19 19 19 19 18 18 18 18 18 18 18 18 18 18 18 17 17 17 17 17 17 17 17 17 17 17 17 17 17 17 16 16 16 16 16 16 16 16 16
21 20 20 20 19 19 19 19 18 18 18 18 18 18 18 18 17 17 17 17 17 17 17 17 17 17 17 17 17 17 17 17 17 17 17 16 16 16 16 16 16 16 16
20 20 20 20 19 19 19 18 18 18 18 18 18 18 17 17 17 17 17 17 17 17 17 17 17 17 17 17 17 17 17 17 16 16 16 16 16 16 16 16 16 16 16
20 20 20 20 19 19 19 18 18 18 18 18 18 18 17 17 17 17 17 17 17 17 17 17 17 17 17 16 16 16 16 16 16 16 16 16 16 16 16 16 16 16 15
20 20 20 19 19 19 18 18 18 18 18 18 18 17 17 17 17 17 17 17 17 17 17 17 17 16 16 16 16 16 16 16 16 16 16 16 16 15 15 15 15 15 15
20 20 20 19 19 19 18 18 18 18 18 18 17 17 17 17 17 17 17 17 17 17 17 16 16 16 16 16 16 16 16 16 16 16 16 16 16 15 15 15 15 15 15
20 19 19 19 19 19 18 18 18 17 17 17 17 17 17 17 17 17 16 17 17 17 16 16 16 16 16 16 16 16 16 16 16 16 16 16 15 15 15 15 15 15 15
19 19 19 18 18 18 18 18 17 17 17 17 17 17 17 17 17 16 16 16 16 16 16 16 16 16 16 16 16 16 16 16 16 15 15 15 15 15 15 15 15 15 15
19 18 18 18 18 17 17 17 17 17 17 17 17 17 17 17 16 16 16 16 16 16 16 16 16 16 16 16 16 16 16 16 15 15 15 15 15 15 15 15 15 14 14
18 18 18 18 17 17 17 17 17 17 17 17 17 16 16 16 16 16 16 16 16 16 16 16 16 16 16 15 15 15 15 15 15 15 15 15 15 15 15 15 15 14 14
18 18 18 17 17 17 17 17 17 16 16 16 16 16 16 16 16 16 16 16 16 16 16 16 16 16 15 15 15 15 15 15 15 15 15 15 15 15 15 15 14 14 14
17 17 17 17 17 17 16 16 16 16 16 16 16 16 16 16 16 16 16 16 16 16 16 16 15 15 15 15 15 15 15 15 15 15 15 15 15 15 15 15 14 14 14
17 17 17 17 16 16 16 16 16 16 16 16 16 16 16 16 16 16 16 16 16 16 16 15 15 15 15 15 15 15 15 14 14 14 14 15 15 14 14 14 14 14 14
16 16 16 16 16 16 16 16 16 16 15 15 15 16 16 16 16 16 16 15 15 15 15 15 15 15 15 14 14 14 14 14 14 14 14 14 14 14 14 14 14 14 13
16 16 15 15 15 15 15 15 15 15 15 15 15 15 15 16 16 16 15 15 15 15 15 15 15 15 15 14 14 14 14 14 14 14 14 14 14 14 14 14 13 13 13
15 15 15 15 15 15 15 15 15 15 15 15 15 15 15 15 15 15 15 15 15 15 15 15 15 15 14 14 14 14 14 14 14 14 14 14 14 14 14 13 13 13 13
15 15 15 15 15 15 15 14 14 15 15 15 15 15 15 15 15 15 15 15 15 14 14 14 14 14 14 14 14 14 14 14 14 14 14 14 13 13 13 13 13 13 13
15 15 14 14 14 14 14 14 14 14 14 14 15 14 14 14 14 14 14 14 14 14 14 14 14 14 14 14 14 14 13 13 13 13 13 13 13 13 13 13 12 12 12
14 14 14 14 14 14 14 14 14 14 14 14 14 14 14 14 14 14 14 14 14 14 14 14 14 14 14 13 13 13 13 13 13 13 13 13 13 12 12 12 12 12 12
14 14 14 14 13 13 13 13 13 13 13 13 13 13 13 13 13 13 13 13 13 13 13 13 13 13 13 13 13 13 13 12 12 12 12 12 12 12 12 12 12 11 11
13 13 13 13 13 13 13 13 13 13 13 13 13 13 13 13 13 13 13 13 13 13 13 13 13 13 13 12 12 12 12 12 12 12 12 12 12 11 11 11 11 11 11
13 13 13 13 13 13 12 12 12 12 12 13 13 12 12 12 12 12 12 12 12 12 12 12 12 12 12 12 12 12 12 12 12 12 11 11 11 11 11 11 11 11 10
12 12 12 12 12 12 12 12 12 12 12 12 12 12 12 12 12 12 12 12 12 12 12 12 12 11 11 11 11 11 11 11 11 11 11 11 11 11 10 10 10 10 10
12 12 12 12 12 12 12 12 12 12 12 12 12 12 12 11 11 11 11 11 11 11 11 11 11 11 11 11 11 11 11 11 11 11 10 10 10 10 10 10 10 10 10
12 12 12 12 11 11 11 11 11 11 11 11 11 11 11 11 11 11 11 11 11 11 10 10 10 10 10 10 10 10 10 10 10 10 10 10 10 10 10 10 9 9 9
12 12 11 11 11 11 11 11 11 11 11 11 11 11 10 10 10 10 10 10 10 10 10 10 10 10 10 10 9 10 10 10 10 10 9 9 9 9 9 9 9 9 9
Wind_Speed
5 4 4 4 4 4 4 4 4 3 3 4 4 4 3 3 3 3 3 3 2 2 1 1 1 1 1 1 1 2 2 3 3 3 3 2 3 3 4 7 8 8 9
5 4 4 4 4 3 3 4 4 3 3 4 4 4 4 3 3 4 3 3 3 3 3 2 2 1 1 1 1 2 2 3 3 3 2 1 3 4 4 4 5 7 8
4 4 3 3 3 4 4 4 3 4 3 3 3 4 4 3 3 4 4 4 4 4 3 3 3 2 2 2 2 2 2 2 2 3 3 2 1 2 1 3 4 3 6
4 4 3 4 4 4 4 4 4 4 4 4 4 4 4 3 3 3 3 3 3 3 3 3 3 3 3 3 2 2 2 2 2 2 2 2 1 1 2 2 2 2 3
4 4 3 3 2 2 3 3 3 4 4 4 3 3 3 3 3 3 3 3 3 3 2 3 3 3 4 3 2 2 2 2 2 2 2 1 2 1 3 3 3 2 3
4 4 3 3 2 2 3 3 3 3 3 3 3 3 4 3 4 4 4 3 3 3 3 2 2 2 3 3 4 4 4 4 4 3 3 3 4 4 3 3 2 1 2
4 4 4 3 3 3 3 3 3 3 2 3 3 3 4 5 5 5 5 4 4 4 4 4 3 2 2 2 3 3 4 5 7 6 5 6 5 5 5 3 3 4 4
4 3 3 3 3 3 3 3 3 3 3 3 3 4 4 5 7 7 6 4 4 5 5 5 4 3 3 3 2 2 3 4 4 5 6 7 6 6 6 6 5 3 3
4 4 4 4 3 3 4 4 4 3 3 3 3 4 5 6 7 8 6 3 3 5 5 5 5 5 5 5 3 2 3 5 5 6 7 8 8 8 6 3 2 2 3
4 5 5 5 5 5 5 4 3 4 4 4 4 5 5 5 7 8 7 3 4 4 3 4 6 7 7 7 5 4 4 5 3 3 3 5 5 6 7 6 6 4 3
3 3 4 5 6 6 5 4 3 3 4 4 5 5 5 6 7 8 8 5 5 5 4 4 5 7 8 8 6 5 7 5 3 3 3 3 3 3 4 5 6 5 5
2 2 3 4 4 4 4 3 3 4 4 4 4 4 4 4 5 7 9 9 7 6 6 5 5 8 8 8 6 6 7 4 2 2 3 4 4 4 4 4 6 7 7
2 2 3 3 2 2 3 3 3 3 4 4 4 4 4 3 4 7 9 10 9 6 5 6 6 7 6 5 7 7 5 3 3 3 5 5 5 5 3 3 3 4 5
2 2 2 2 2 2 3 3 4 4 4 4 4 5 4 3 4 4 4 5 6 6 4 4 4 4 4 5 4 4 4 4 5 5 5 5 3 3 3 3 3 2 2
2 2 2 2 3 3 3 4 5 5 5 5 5 5 5 5 7 7 5 5 5 5 3 1 1 1 2 3 3 3 3 3 4 5 5 4 4 4 4 3 3 2 3
2 2 2 3 2 2 3 4 5 5 5 6 7 6 6 7 7 7 8 8 8 6 4 3 4 4 5 5 5 4 4 5 5 5 5 5 5 5 4 3 2 3 4
2 2 3 3 3 3 2 3 4 5 4 5 7 8 8 7 7 7 7 6 5 7 4 4 5 5 5 5 5 5 5 6 5 5 5 5 5 5 4 4 3 3 4
2 3 3 3 3 3 3 3 3 4 4 4 5 6 7 7 7 7 5 3 2 3 4 5 5 5 5 5 5 5 5 5 5 5 5 5 5 5 5 4 4 5 5
2 2 3 2 3 3 3 3 3 4 4 4 4 4 5 4 4 4 3 3 4 5 5 5 5 5 4 5 5 5 5 5 5 5 5 5 5 4 5 5 5 6 5
2 3 3 2 2 2 2 2 3 3 3 3 3 4 2 1 1 2 2 3 4 4 5 5 5 5 5 5 4 4 4 5 5 5 5 5 4 4 5 6 5 5 5
2 2 3 2 2 2 2 2 3 3 3 3 3 4 3 2 3 3 3 4 4 5 5 5 4 4 4 4 4 4 4 4 4 4 4 4 4 4 5 5 5 5 5
1 1 1 2 2 2 3 3 3 3 4 4 3 2 3 2 2 3 4 4 5 5 4 3 3 3 3 3 3 3 3 3 4 4 4 4 4 4 4 4 4 4 4
2 2 2 2 2 3 3 2 2 3 3 3 3 2 1 2 3 3 3 3 3 3 2 2 3 3 2 2 2 2 3 4 4 4 4 3 3 4 4 4 5 5 5
2 2 2 2 2 2 2 2 2 2 2 3 3 2 2 2 2 2 2 2 1 1 1 1 2 2 2 2 1 1 1 2 2 3 4 4 4 4 4 5 5 6 6
2 2 2 1 1 1 1 2 2 2 2 2 2 2 2 2 2 2 2 1 1 1 1 1 1 0 1 2 1 1 1 2 2 2 2 3 4 4 4 5 5 5 5
1 1 1 1 1 1 1 2 2 2 2 2 2 2 2 2 2 2 2 1 1 1 1 1 1 1 1 2 2 2 2 2 2 3 2 2 3 3 3 3 4 4 5
Wind_Direction
191 196 197 199 197 189 190 197 196 197 185 185 192 189 185 179 172 166 175 179 184 216 233 195 213 202 214 247 207 187 181 166 194 251 247 229 199 218 205 209 218 218 224
196 193 196 199 192 190 198 200 188 183 190 190 186 186 194 190 179 176 188 186 186 205 223 197 210 200 218 237 204 203 205 193 181 216 246 221 217 216 206 211 220 224 227
184 185 191 192 197 204 207 200 190 184 187 189 183 186 191 191 188 188 191 194 199 208 205 199 214 190 220 245 227 215 221 218 183 185 225 225 232 216 194 229 230 233 232
186 190 195 202 207 206 199 192 192 189 188 193 195 190 189 192 194 194 193 195 198 206 209 208 208 197 207 221 234 225 213 201 188 185 216 232 236 237 173 212 246 245 243
180 189 209 210 202 188 188 196 199 201 202 198 192 188 187 191 201 192 194 193 198 212 226 222 221 209 206 207 214 212 199 197 197 200 219 229 234 206 216 212 223 246 262
176 195 203 197 194 191 190 189 196 205 206 187 188 190 202 221 209 186 179 190 195 202 218 231 233 213 218 214 214 211 200 200 206 207 211 216 229 224 213 206 197 207 268
185 193 193 193 192 195 194 186 199 204 205 206 206 203 218 230 214 202 197 192 198 203 208 216 233 236 216 224 239 245 245 231 211 201 208 219 217 216 199 204 207 213 234
191 197 201 207 206 194 186 201 211 209 209 214 216 219 226 235 221 212 206 206 213 214 214 213 215 228 232 204 219 270 278 271 247 220 217 223 223 215 202 203 207 223 261
202 201 204 206 211 209 212 216 220 217 225 225 221 221 228 242 227 216 201 205 219 230 226 219 211 213 222 194 187 229 274 288 283 254 235 232 225 215 198 167 177 188 258
222 209 203 197 203 215 221 219 224 216 223 223 235 235 232 240 236 223 205 200 217 237 244 234 219 217 218 197 192 203 240 262 279 301 278 259 244 232 211 196 195 203 227
241 212 207 206 209 212 210 214 222 225 230 233 238 246 242 241 236 224 207 202 211 218 226 236 238 230 223 216 209 213 232 238 248 253 267 269 263 247 231 216 204 202 213
271 214 213 219 229 227 205 214 219 219 228 239 241 247 250 246 236 226 217 215 211 209 221 230 237 233 227 226 227 238 240 236 238 253 268 267 260 256 247 230 220 217 220
287 257 233 222 222 216 205 212 222 226 231 241 236 241 255 255 247 237 231 227 223 221 227 227 239 238 230 235 241 241 233 221 224 243 253 256 252 248 247 245 238 225 231
281 274 256 238 239 241 229 217 215 223 237 243 237 239 248 252 250 243 240 238 237 239 242 239 240 244 238 242 253 250 234 224 222 235 250 258 259 252 241 233 231 220 231
288 286 292 272 247 249 250 241 236 230 228 231 240 240 237 245 246 234 227 229 223 221 193 191 230 233 238 255 263 260 248 239 241 246 246 254 252 246 251 241 224 216 222
307 303 284 270 267 253 262 287 283 266 262 245 239 240 248 248 247 237 234 229 216 181 162 199 220 222 226 235 242 250 246 244 243 242 241 242 242 240 246 243 223 215 227
237 262 276 270 263 255 252 258 284 311 303 271 256 251 246 253 253 248 240 229 212 171 183 217 224 226 231 233 236 239 243 244 240 236 238 240 242 240 237 234 229 229 236
243 244 256 265 267 264 259 259 259 267 283 292 282 263 252 253 256 253 234 177 205 201 217 224 231 233 234 236 238 241 247 250 244 242 240 239 238 238 237 234 229 230 235
250 251 254 259 270 271 274 276 273 268 267 279 297 299 276 263 258 254 199 201 222 229 230 234 238 240 242 241 240 241 245 249 249 242 242 240 238 237 240 238 233 234 233
263 280 278 266 266 282 291 292 289 282 281 278 284 291 308 358 287 267 223 232 238 241 243 242 245 246 244 243 243 244 249 253 252 248 245 240 236 234 238 235 231 232 235
272 292 306 307 290 268 265 267 268 270 272 276 275 275 249 238 240 243 234 233 239 245 247 245 243 246 244 241 238 238 241 249 248 247 247 241 234 237 241 235 230 230 234
260 270 285 291 291 286 283 269 269 275 277 280 289 287 238 242 245 245 246 243 239 239 238 235 243 245 245 242 235 236 241 251 256 255 250 247 244 242 238 235 235 236 234
246 258 275 283 282 285 289 286 282 283 287 290 292 296 276 257 263 266 263 261 255 245 236 226 229 244 247 247 240 228 231 242 248 247 247 252 256 251 240 237 237 237 234
250 255 261 276 284 282 293 299 299 306 310 314 316 319 312 296 289 285 278 280 275 262 252 248 233 230 263 275 275 266 258 268 268 256 243 241 245 246 239 237 239 237 234
250 265 268 269 271 275 296 306 311 321 326 316 312 317 316 309 302 298 301 300 310 316 306 294 293 58 0 333 320 304 332 339 323 309 283 249 249 250 242 241 241 243 238
232 251 268 282 286 285 286 300 311 319 322 321 317 308 301 300 298 291 292 295 308 318 320 320 334 357 349 343 330 343 339 322 319 311 297 266 254 261 262 256 249 248 247
Height
1521 1522 1521 1521 1521 1521 1521 1521 1521 1521 1521 1521 1520 1520 1520 1520 1521 1521 1522 1522 1523 1523 1523 1523 1523 1523 1523 1524 1524 1524 1524 1525 1524 1524 1524 1524 1524 1525 1525 1525 1526 1526 1526
1520 1520 1520 1519 1519 1519 1519 1519 1519 1519 1519 1519 1519 1518 1519 1519 1519 1519 1520 1520 1521 1521 1521 1521 1521 1521 1521 1522 1522 1522 1522 1522 1523 1522 1522 1522 1522 1522 1523 1523 1523 1523 1523
1519 1519 1518 1518 1517 1517 1517 1517 1517 1517 1517 1517 1517 1517 1517 1517 1518 1518 1518 1519 1519 1519 1519 1519 1519 1519 1519 1519 1519 1519 1519 1520 1520 1520 1519 1519 1520 1520 1520 1520 1520 1520 1520
1517 1517 1516 1516 1515 1515 1515 1515 1515 1515 1515 1515 1515 1516 1515 1515 1515 1516 1516 1517 1517 1517 1517 1517 1518 1517 1517 1517 1517 1517 1517 1517 1517 1517 1517 1517 1517 1517 1517 1517 1517 1517 1517
1515 1515 1515 1514 1514 1514 1513 1513 1513 1513 1513 1513 1513 1513 1513 1513 1513 1514 1514 1515 1515 1514 1515 1515 1515 1515 1515 1515 1515 1515 1514 1514 1514 1514 1514 1514 1514 1514 1514 1514 1514 1514 1514
1513 1513 1513 1512 1512 1511 1511 1511 1511 1510 1510 1510 1510 1510 1511 1511 1511 1511 1512 1512 1512 1512 1512 1512 1513 1513 1513 1513 1512 1512 1512 1511 1510 1510 1510 1510 1510 1511 1511 1511 1511 1511 1510
1511 1511 1510 1510 1510 1509 1509 1509 1508 1508 1507 1507 1508 1508 1508 1508 1508 1509 1509 1509 1509 1509 1509 1510 1510 1510 1510 1510 1509 1509 1508 1508 1507 1507 1507 1506 1507 1507 1508 1508 1507 1507 1507
1508 1508 1508 1508 1508 1507 1506 1506 1506 1506 1505 1505 1505 1505 1505 1505 1505 1505 1505 1506 1505 1506 1506 1506 1506 1506 1506 1506 1506 1505 1505 1505 1504 1504 1503 1504 1504 1504 1504 1505 1504 1504 1504
1505 1505 1505 1505 1505 1504 1503 1503 1503 1503 1502 1502 1502 1502 1502 1502 1502 1502 1502 1502 1502 1502 1503 1503 1503 1503 1503 1503 1503 1502 1502 1501 1501 1501 1500 1500 1500 1500 1501 1501 1500 1500 1499
1502 1501 1501 1501 1501 1500 1500 1499 1499 1499 1499 1498 1498 1498 1498 1498 1498 1498 1499 1498 1498 1499 1499 1499 1500 1500 1500 1500 1499 1499 1498 1497 1497 1497 1497 1496 1496 1496 1496 1496 1496 1496 1495
1499 1499 1498 1498 1497 1497 1496 1496 1496 1496 1495 1494 1494 1494 1494 1494 1494 1494 1494 1494 1494 1494 1494 1495 1496 1496 1496 1496 1495 1495 1495 1495 1494 1493 1492 1492 1492 1491 1491 1492 1492 1492 1491
1496 1495 1495 1495 1494 1493 1493 1492 1492 1492 1491 1490 1490 1489 1489 1490 1490 1490 1490 1491 1491 1490 1490 1491 1492 1492 1492 1491 1491 1491 1491 1491 1490 1489 1488 1488 1487 1487 1487 1487 1487 1487 1487
1493 1492 1492 1491 1491 1490 1489 1489 1489 1488 1487 1486 1486 1485 1485 1485 1485 1486 1486 1486 1486 1486 1486 1487 1488 1488 1488 1487 1487 1487 1486 1486 1486 1485 1484 1483 1483 1483 1483 1482 1482 1482 1482
1490 1489 1488 1488 1487 1487 1486 1486 1485 1484 1483 1482 1482 1481 1481 1481 1481 1481 1481 1481 1481 1481 1482 1483 1483 1483 1483 1482 1482 1482 1481 1481 1481 1480 1479 1479 1479 1478 1478 1478 1477 1477 1476
1487 1486 1485 1484 1484 1483 1482 1482 1482 1481 1480 1480 1479 1478 1477 1476 1477 1477 1477 1477 1477 1477 1477 1478 1478 1478 1478 1477 1477 1477 1477 1477 1476 1475 1475 1474 1474 1473 1473 1473 1473 1472 1472
1485 1484 1483 1482 1481 1480 1479 1479 1478 1478 1477 1476 1476 1475 1474 1473 1473 1473 1473 1473 1474 1473 1473 1472 1472 1472 1472 1472 1472 1472 1472 1471 1471 1471 1470 1469 1469 1468 1468 1468 1467 1467 1467
1482 1481 1480 1478 1478 1477 1476 1475 1474 1473 1473 1472 1472 1471 1470 1469 1469 1469 1468 1468 1469 1468 1468 1467 1466 1466 1466 1466 1467 1466 1466 1466 1466 1465 1464 1464 1464 1463 1462 1462 1462 1462 1461
1479 1478 1477 1476 1475 1474 1474 1472 1471 1470 1468 1467 1467 1466 1466 1465 1464 1464 1464 1463 1463 1463 1462 1462 1461 1461 1461 1461 1461 1461 1461 1460 1460 1459 1458 1458 1458 1457 1456 1456 1456 1456 1456
1476 1475 1474 1473 1472 1471 1471 1470 1468 1467 1465 1464 1463 1462 1462 1461 1460 1460 1459 1458 1457 1457 1457 1457 1457 1456 1456 1456 1456 1456 1455 1455 1454 1453 1452 1452 1452 1451 1450 1450 1450 1450 1451
1473 1472 1471 1470 1469 1468 1467 1466 1465 1463 1462 1461 1460 1459 1458 1456 1455 1455 1454 1454 1453 1452 1452 1452 1451 1451 1451 1451 1451 1450 1449 1449 1448 1447 1446 1446 1446 1445 1445 1445 1445 1445 1445
1470 1469 1468 1467 1466 1465 1463 1462 1461 1460 1459 1457 1456 1455 1454 1453 1451 1451 1450 1449 1448 1448 1447 1447 1446 1446 1446 1446 1445 1444 1444 1443 1442 1441 1441 1440 1440 1440 1439 1439 1439 1439 1440
1467 1466 1465 1464 1463 1462 1461 1460 1459 1457 1456 1454 1452 1451 1450 1449 1448 1447 1446 1445 1444 1443 1443 1442 1441 1441 1441 1440 1440 1439 1438 1437 1437 1436 1436 1435 1435 1434 1434 1434 1433 1434 1434
1465 1464 1463 1462 1461 1460 1459 1457 1456 1455 1453 1452 1450 1449 1447 1446 1445 1443 1442 1441 1440 1439 1438 1437 1436 1436 1436 1435 1435 1434 1433 1432 1432 1431 1431 1430 1430 1429 1428 1428 1428 1428 1428
1462 1461 1460 1459 1458 1457 1456 1455 1453 1452 1451 1449 1447 1446 1444 1443 1441 1440 1438 1437 1436 1435 1434 1433 1432 1432 1431 1430 1430 1430 1429 1428 1427 1427 1426 1425 1425 1424 1424 1423 1423 1422 1422
1460 1459 1458 1456 1456 1455 1454 1452 1451 1449 1448 1446 1445 1443 1442 1440 1438 1437 1435 1434 1432 1431 1430 1429 1428 1427 1427 1426 1426 1425 1425 1424 1423 1422 1422 1421 1420 1420 1419 1418 1417 1417 1417
1457 1456 1455 1454 1453 1452 1451 1450 1448 1447 1446 1444 1442 1440 1439 1437 1436 1434 1432 1430 1429 1427 1426 1425 1425 1424 1423 1422 1422 1421 1420 1419 1418 1417 1417 1416 1416 1415 1414 1413 1413 1412 1412